[[{"header":{"parameterUnit":"m.s-1","parameterCategory":1,"la1":30.2991,"la2":30.254,"lo1":-89.0895,"lo2":-89.0444,"dy":0.0017,"dx":0.0017,"nx":28,"ny":28,"refTime":"2024-04-13T09:00:00:Z","depth":0,"parameterNumber":2,"parameterNumberName":"U-component_of_WINDS"},"data":[0,0,0,0,0,0,0,0,0,0,0,0,0,0,0,0,0,0,0,0,0,0,0,0,0,0,0,0,0,0,0,0,0,0,0,0,0,0,0,0,0,0,0,0,0,0,0,0,0,0,0,0,0,0,0,0,0,0,0.0581,0.0581,0,0.0625,0.0626,0.0626,0.0633,0.0632,0.0632,0.0631,0.0676,0.0678,0.0679,0,0,0,0,0,0,0,0,0,0,0,0,0,0.0498,0.0499,0.0581,0.0581,0.0582,0.0625,0.0626,0.0627,0.0633,0.0632,0.0632,0.0631,0.0676,0.0677,0.0679,0,0,0,0,0,0,0,0,0,0,0,0,0,0.0537,0.05,0.058,0.059,0.0591,0.0625,0.0626,0.0627,0.0633,0.0632,0.0631,0.0631,0.0675,0.0677,0.068,0.0707,0,0,0.0687,0.0688,0,0,0,0,0,0,0,0,0.0535,0.054,0.0588,0.0589,0.0591,0.0623,0.0613,0.0654,0.0633,0.0617,0.0631,0.0631,0.0659,0.0662,0.0672,0.0709,0.0711,0.0687,0.0689,0.069,0.069,0,0,0,0,0,0,0,0.0532,0.0538,0.0598,0.0589,0.059,0.0591,0.0596,0.0621,0.0641,0.0618,0.0619,0.0624,0.0659,0.067,0.0673,0.0712,0.0687,0.0689,0.0691,0.0692,0.077,0.0771,0,0,0,0,0,0,0.0528,0.0536,0.0597,0.06,0.0561,0.0593,0.0599,0.0613,0.0641,0.0644,0.0625,0.0624,0.0666,0.0671,0.0675,0.0707,0.069,0.0692,0.0693,0.077,0.0771,0.0771,0,0,0,0,0,0,0.0526,0.0533,0.0595,0.0568,0.0576,0.0595,0.0611,0.0614,0.0625,0.0645,0.0649,0.0632,0.0666,0.0672,0.0698,0.0709,0.0693,0.0695,0.0769,0.077,0.0771,0.0772,0,0,0,0,0,0,0.0524,0.0533,0.0544,0.0568,0.0577,0.0619,0.0612,0.0616,0.0629,0.0629,0.0653,0.0656,0.0666,0.0695,0.0701,0.0712,0.0697,0.0768,0.0769,0.0771,0.0771,0.0773,0.0775,0,0,0,0,0,0.0521,0.0543,0.0545,0.0552,0.0592,0.0619,0.0624,0.0635,0.063,0.0641,0.0654,0.0656,0.0707,0.0698,0.0704,0.0716,0.0767,0.0769,0.077,0.0771,0.0773,0.0775,0,0,0,0,0,0,0.0519,0.0546,0.0548,0.0579,0.0597,0.062,0.0634,0.0637,0.0657,0.0656,0.0668,0.0673,0.0699,0.071,0.07,0.0743,0.0736,0.0739,0.0734,0.0737,0.0738,0.0735,0.0699,0,0,0,0,0,0.0523,0.0543,0.0565,0.059,0.0599,0.0615,0.0627,0.0634,0.0653,0.066,0.0675,0.0693,0.0712,0.0725,0.0745,0.0773,0.0778,0.0784,0.0786,0.0787,0.079,0.0803,0.0806,0.0776,0.0776,0.0776,0,0,0.053,0.0547,0.0559,0.059,0.0605,0.0625,0.0621,0.0643,0.0658,0.0663,0.0689,0.0701,0.0721,0.0748,0.0761,0.0758,0.0799,0.0789,0.079,0.0792,0.0805,0.0808,0.0811,0.0777,0.0777,0.0777,0,0,0.0552,0.0568,0.0589,0.0604,0.0626,0.0636,0.0641,0.0664,0.0671,0.0697,0.0701,0.0719,0.0753,0.0767,0.0778,0.0804,0.0806,0.081,0.0819,0.0832,0.0834,0.0836,0.0844,0.0847,0.0812,0.0812,0.0812,0,0.0558,0.0589,0.06,0.0621,0.0634,0.064,0.0661,0.0674,0.0701,0.0709,0.0706,0.0748,0.0762,0.0792,0.0798,0.0807,0.0812,0.0807,0.0833,0.0835,0.0838,0.0845,0.0848,0.0812,0.0812,0.0812,0.0812,0,0.0594,0.0615,0.063,0.0655,0.067,0.0691,0.0704,0.0717,0.0722,0.0732,0.0758,0.0775,0.0797,0.0805,0.081,0.0834,0.0832,0.0831,0.0825,0.0841,0.0848,0.0851,0.0813,0.0813,0.0813,0.0813,0,0,0.0617,0.0648,0.0653,0.0663,0.0687,0.0703,0.0724,0.0746,0.0756,0.0774,0.079,0.0819,0.0817,0.083,0.0837,0.0849,0.0866,0.0846,0.0847,0.0848,0.0892,0.0892,0.0895,0.0867,0.0868,0.0869,0.089,0,0.0641,0.0679,0.0688,0.072,0.0738,0.0743,0.0761,0.0776,0.0786,0.0803,0.0813,0.0833,0.083,0.0838,0.085,0.0861,0.0875,0.086,0.0882,0.0882,0.0876,0.0899,0.09,0.0919,0.0893,0.0893,0.0894,0,0.0675,0.0693,0.0726,0.0745,0.0754,0.0769,0.0789,0.0805,0.0823,0.0829,0.0842,0.0848,0.0868,0.0861,0.0888,0.0878,0.0887,0.0894,0.0895,0.0897,0.0889,0.0901,0.0926,0.0928,0.0899,0.0898,0.0898,0,0.0687,0.072,0.0743,0.0752,0.0776,0.0787,0.0797,0.0814,0.0826,0.0843,0.085,0.0869,0.088,0.0894,0.0904,0.0898,0.0929,0.0924,0.0934,0.0934,0.094,0.0939,0.0966,0.0948,0.0948,0.0947,0.0947,0,0.0712,0.0732,0.0748,0.0763,0.0784,0.0795,0.0815,0.0826,0.084,0.0856,0.0862,0.0876,0.0888,0.0904,0.0912,0.0932,0.0937,0.0942,0.0943,0.0941,0.094,0.0947,0.0945,0.0948,0.0948,0.0948,0.0948,0,0.0729,0.0741,0.0767,0.0787,0.0792,0.0807,0.0824,0.0837,0.0847,0.0866,0.0871,0.0886,0.0905,0.0916,0.094,0.0945,0.0967,0.0968,0.0961,0.0961,0.0971,0.0969,0.1002,0.1006,0.0986,0.0986,0.0986,0,0.0744,0.0759,0.078,0.0791,0.0802,0.0819,0.0831,0.0842,0.0854,0.0874,0.0884,0.0903,0.0919,0.0948,0.096,0.0978,0.0979,0.099,0.0982,0.0978,0.0978,0.0977,0.0978,0.0991,0.0991,0.0991,0.0991,0,0.0769,0.0774,0.0791,0.0809,0.0823,0.0839,0.0854,0.0862,0.0875,0.0888,0.0907,0.0919,0.0942,0.0961,0.0979,0.0989,0.0992,0.0993,0.0996,0.0993,0.0988,0.099,0.0963,0.0992,0.0992,0.0992,0.0992,0.0992,0.0784,0.0797,0.0814,0.0832,0.0845,0.0858,0.0871,0.0882,0.0898,0.0918,0.0923,0.0943,0.0958,0.0983,0.0993,0.1008,0.1006,0.1011,0.1012,0.1013,0.1013,0.0986,0.1012,0.1012,0.1012,0.1012,0.1012,0,0.0808,0.0819,0.0836,0.0856,0.087,0.0872,0.0888,0.09,0.0917,0.0931,0.0946,0.0967,0.0984,0.0998,0.1015,0.1024,0.1026,0.1028,0.1027,0.1029,0.1014,0.1009,0.1027,0.1027,0.1027,0.1027,0.1027,0.1027,0.0822,0.0844,0.085,0.0877,0.0888,0.0907,0.0916,0.0928,0.0939,0.0962,0.0977,0.0985,0.0999,0.1017,0.1033,0.1036,0.1042,0.1044,0.1047,0.1032,0.1031,0.1029,0.1024,0.1045,0.1045,0.1061,0.1061,0.1062]},{"header":{"parameterUnit":"m.s-1","parameterCategory":1,"la1":30.2991,"la2":30.254,"lo1":-89.0895,"lo2":-89.0444,"dy":0.0017,"dx":0.0017,"nx":28,"ny":28,"refTime":"2024-04-13T09:00:00:Z","depth":0,"parameterNumber":3,"parameterNumberName":"V-component_of_WINDS"},"data":[0,0,0,0,0,0,0,0,0,0,0,0,0,0,0,0,0,0,0,0,0,0,0,0,0,0,0,0,0,0,0,0,0,0,0,0,0,0,0,0,0,0,0,0,0,0,0,0,0,0,0,0,0,0,0,0,0,0,1.4234,1.4234,0,1.424,1.424,1.424,1.42,1.4199,1.4198,1.4197,1.4203,1.4204,1.4205,0,0,0,0,0,0,0,0,0,0,0,0,0,1.4187,1.4188,1.4234,1.4234,1.4234,1.424,1.424,1.424,1.42,1.4199,1.4197,1.4196,1.4202,1.4204,1.4205,0,0,0,0,0,0,0,0,0,0,0,0,0,1.4201,1.4188,1.4234,1.4215,1.4213,1.424,1.424,1.424,1.42,1.4199,1.4197,1.4195,1.4202,1.4204,1.4205,1.4251,0,0,1.4211,1.4212,0,0,0,0,0,0,0,0,1.4201,1.4203,1.4218,1.4216,1.4214,1.4217,1.4225,1.4244,1.4201,1.4205,1.4197,1.4195,1.4209,1.421,1.4215,1.4251,1.4251,1.4211,1.4212,1.4213,1.4213,0,0,0,0,0,0,0,1.42,1.4203,1.4236,1.4218,1.4216,1.4205,1.4206,1.4229,1.4217,1.4205,1.4202,1.4203,1.4208,1.4213,1.4215,1.4251,1.4211,1.4213,1.4214,1.4215,1.4322,1.4324,0,0,0,0,0,0,1.4201,1.4202,1.4236,1.4237,1.4203,1.4208,1.4208,1.4218,1.4216,1.4214,1.4205,1.4201,1.4211,1.4213,1.4215,1.4266,1.4213,1.4215,1.4216,1.432,1.4322,1.4324,0,0,0,0,0,0,1.42,1.4205,1.4236,1.4218,1.4222,1.421,1.4222,1.4219,1.4225,1.4216,1.4214,1.4213,1.421,1.4212,1.4241,1.4266,1.4216,1.4217,1.4318,1.4321,1.4323,1.437,0,0,0,0,0,0,1.4199,1.4205,1.4222,1.4219,1.4223,1.4263,1.4224,1.4221,1.4228,1.4224,1.4223,1.4221,1.4209,1.4239,1.4243,1.4267,1.4219,1.4316,1.4319,1.4322,1.4366,1.4374,1.438,0,0,0,0,0,1.4198,1.4236,1.4223,1.4228,1.4245,1.4265,1.4267,1.4251,1.423,1.4247,1.4241,1.4221,1.4262,1.4242,1.4247,1.4272,1.4314,1.4318,1.4322,1.4363,1.4372,1.438,0,0,0,0,0,0,1.4243,1.4235,1.4221,1.426,1.4263,1.4258,1.4279,1.4262,1.4272,1.4267,1.4248,1.4248,1.428,1.4279,1.4257,1.4314,1.4284,1.429,1.4314,1.4323,1.433,1.4329,1.422,0,0,0,0,0,1.4257,1.4274,1.4267,1.4301,1.4303,1.4291,1.4299,1.4287,1.429,1.4291,1.4287,1.4291,1.4304,1.4313,1.4325,1.4366,1.4364,1.4385,1.4392,1.4398,1.4402,1.4421,1.443,1.4337,1.4337,1.4337,0,0,1.4287,1.4285,1.4297,1.431,1.4311,1.4328,1.4293,1.4313,1.4325,1.4294,1.4321,1.4318,1.432,1.4355,1.437,1.4355,1.4427,1.4403,1.4408,1.4409,1.4426,1.4435,1.4443,1.434,1.4339,1.4339,0,0,1.435,1.4351,1.4379,1.438,1.4382,1.4373,1.438,1.4377,1.4373,1.44,1.4376,1.439,1.4415,1.4416,1.442,1.4482,1.4463,1.4486,1.4523,1.4542,1.4549,1.4556,1.4576,1.4584,1.4491,1.4491,1.4491,0,1.4387,1.4413,1.4395,1.4417,1.4422,1.4394,1.4421,1.4423,1.4429,1.4433,1.4416,1.4444,1.4444,1.4477,1.4492,1.4497,1.4503,1.4486,1.455,1.4556,1.4562,1.4581,1.4589,1.4494,1.4493,1.4493,1.4493,0,1.4457,1.4475,1.4497,1.4502,1.451,1.4535,1.452,1.453,1.4517,1.4509,1.4536,1.4534,1.4544,1.4551,1.4539,1.4582,1.4573,1.4553,1.4523,1.4573,1.4591,1.4598,1.4497,1.4496,1.4496,1.4495,0,0,1.455,1.4544,1.4552,1.4553,1.4552,1.4565,1.4587,1.4597,1.4605,1.4609,1.4627,1.4647,1.4628,1.4632,1.462,1.4636,1.4683,1.4614,1.4614,1.4626,1.4728,1.4742,1.4751,1.467,1.4672,1.4673,1.4728,0,1.4611,1.4648,1.4632,1.4671,1.4686,1.4658,1.4677,1.4678,1.4671,1.4682,1.4675,1.4689,1.4664,1.4666,1.4681,1.4674,1.4703,1.467,1.4685,1.4686,1.4685,1.4761,1.4776,1.4828,1.4735,1.4736,1.4737,0,1.4687,1.4693,1.4733,1.4727,1.4732,1.475,1.4756,1.4768,1.4767,1.4761,1.4765,1.4748,1.4768,1.4738,1.4765,1.4743,1.4748,1.4745,1.4747,1.4747,1.4714,1.4762,1.4845,1.4852,1.4748,1.4747,1.4746,0,1.4749,1.4767,1.4793,1.4795,1.4789,1.4801,1.4799,1.4797,1.4803,1.4808,1.4812,1.4819,1.4824,1.483,1.4815,1.4794,1.4843,1.4812,1.4837,1.4838,1.4849,1.4848,1.4932,1.4854,1.4853,1.4853,1.4853,0,1.4817,1.4843,1.482,1.4836,1.4863,1.4843,1.487,1.4865,1.4863,1.4877,1.4853,1.4867,1.4846,1.4857,1.4846,1.4869,1.4871,1.4866,1.4862,1.4867,1.4868,1.487,1.4866,1.4855,1.4855,1.4855,1.4854,0,1.4891,1.4877,1.4903,1.4894,1.4893,1.4913,1.4905,1.4919,1.491,1.4927,1.493,1.4916,1.4927,1.4913,1.4923,1.4915,1.4946,1.4938,1.4946,1.4943,1.4969,1.4966,1.5057,1.5067,1.4983,1.4984,1.4984,0,1.4936,1.4954,1.4947,1.4954,1.4953,1.4965,1.497,1.4951,1.4958,1.4957,1.4971,1.498,1.4986,1.5006,1.4996,1.5004,1.4995,1.5026,1.4996,1.4999,1.4993,1.4992,1.4993,1.5032,1.5033,1.5034,1.5034,0,1.5015,1.5007,1.5015,1.5021,1.5028,1.5031,1.5033,1.504,1.502,1.5029,1.5039,1.5044,1.5054,1.5063,1.5067,1.5065,1.5046,1.5044,1.505,1.5055,1.5058,1.5055,1.4962,1.5042,1.5041,1.504,1.504,1.504,1.5075,1.5089,1.5085,1.5095,1.5094,1.5096,1.5107,1.5099,1.5108,1.5114,1.5102,1.5115,1.5113,1.5116,1.5116,1.5125,1.5112,1.5121,1.5123,1.5125,1.5129,1.5057,1.5126,1.5126,1.5126,1.5126,1.5126,0,1.5152,1.5148,1.5157,1.5159,1.5166,1.5147,1.5148,1.5155,1.5167,1.5166,1.5172,1.5184,1.5192,1.5182,1.5188,1.5198,1.5189,1.52,1.5199,1.5198,1.5141,1.5135,1.5207,1.5207,1.5207,1.5207,1.5207,1.5207,1.5193,1.5215,1.5206,1.5227,1.5222,1.5235,1.5237,1.5238,1.5236,1.525,1.5256,1.525,1.5245,1.525,1.5256,1.5253,1.5256,1.527,1.5263,1.521,1.5202,1.5195,1.5188,1.5271,1.5271,1.5319,1.532,1.532]}]]